HB9Y1 Weather Reports


time (UTC)temp
C
wind
direction
speed
KPH
gust
KPH
rain 1hr
cm
rain 24hr
cm
rain mn
cm
humidity
%
barometer
mb
20260506061921 4 0.0 0.0 0.00 0.03 0.00 91 1003.9
20260506060921 4 0.0 0.0 0.00 0.03 0.00 90 1003.6
20260506050929 4 0.0 0.0 0.00 0.08 0.00 90 1004.0
20260506044921 4 0.0 0.0 0.00 0.08 0.00 88 1004.0
20260506043921 4 0.0 0.0 0.00 0.08 0.00 85 1004.4
20260506042929 3 0.0 0.0 0.00 0.08 0.00 86 1004.4
20260506041921 3 0.0 0.0 0.00 0.08 0.00 87 1004.3
20260506040929 3 0.0 0.0 0.00 0.08 0.00 88 1004.4
20260506035921 3 0.0 0.0 0.00 0.08 0.00 88 1004.4
20260506034929 3 0.0 0.0 0.00 0.08 0.00 86 1004.4
20260506033921 3 0.0 0.0 0.00 0.08 0.00 88 1004.8
20260506032921 3 0.0 0.0 0.00 0.08 0.00 88 1004.9
20260506031921 3 0.0 0.0 0.00 0.08 0.00 92 1005.2
20260506030929 3 0.0 0.0 0.00 0.08 0.00 90 1005.2
20260506025923 3 0.0 0.0 0.00 0.08 0.00 91 1005.2
20260506024929 3 0.0 0.0 0.00 0.08 0.00 93 1005.6
20260506023941 3 0.0 0.0 0.00 0.08 0.00 94 1005.6
20260506022929 3 0.0 0.0 0.00 0.08 0.00 93 1005.8
20260506021921 3 0.0 0.0 0.00 0.08 0.00 94 1006.0
20260506020921 3 0.0 0.0 0.00 0.08 0.00 93 1006.0
20260506015921 3 0.0 0.0 0.00 0.08 0.00 93 1006.0
20260506014929 3 0.0 0.0 0.00 0.08 0.00 93 1006.0
20260506013921 3 0.0 0.0 0.00 0.08 0.00 91 1006.0
20260506012929 3 0.0 0.0 0.00 0.08 0.00 92 1006.0
20260506011921 3 0.0 0.0 0.00 0.08 0.00 93 1006.0
20260506010929 3 0.0 0.0 0.00 0.08 0.00 91 1006.4
20260506005941 3 0.0 0.0 0.00 0.08 0.00 91 1006.7
20260506004921 3 0.0 0.0 0.00 0.08 0.00 91 1006.8
20260506003941 3 0.0 0.0 0.00 0.08 0.00 91 1006.8
20260506002929 4 0.0 0.0 0.00 0.08 0.00 90 1006.9
20260506001921 4 0.0 0.0 0.00 0.08 0.00 90 1006.8
20260506000929 3 0.0 0.0 0.00 0.08 0.00 89 1007.2
20260505235921 3 0.0 0.0 0.00 0.08 0.00 90 1007.2
20260505234929 4 0.0 0.0 0.00 0.08 0.00 91 1007.2
20260505233921 3 47 3.2 8.0 0.00 0.08 0.00 91 1007.6
20260505232922 3 0.0 0.0 0.00 0.08 0.00 90 1007.6
20260505231921 3 80 0.0 3.2 0.00 0.08 0.00 91 1008.0
20260505231009 3 0.0 0.0 0.00 0.08 0.00 91 1007.6
20260505225921 3 0.0 0.0 0.00 0.08 0.00 91 1007.2
20260505224929 3 97 4.8 8.0 0.00 0.08 0.00 91 1007.6
20260505223921 3 85 3.2 8.0 0.00 0.08 0.00 91 1007.6
20260505222929 4 113 0.0 3.2 0.00 0.08 0.00 91 1008.0
20260505221941 4 79 11.3 16.1 0.00 0.08 0.00 93 1008.0
20260505220924 4 0.0 0.0 0.00 0.08 0.00 90 1008.0
20260505215941 4 0.0 0.0 0.00 0.08 0.08 90 1008.0
20260505214929 4 0.0 0.0 0.00 0.08 0.08 88 1008.0
20260505213921 4 0.0 0.0 0.00 0.08 0.08 88 1008.0
20260505212929 4 0.0 0.0 0.00 0.08 0.08 87 1008.0
20260505211921 5 0.0 0.0 0.00 0.08 0.08 89 1008.4
20260505210929 5 73 16.1 20.9 0.00 0.08 0.08 89 1008.4
20260505205920 5 91 17.7 24.1 0.00 0.08 0.08 88 1008.3
20260505204920 5 120 11.3 16.1 0.00 0.08 0.08 82 1008.4
20260505203920 5 34 1.6 3.2 0.00 0.08 0.08 80 1008.4
20260505202929 5 339 1.6 3.2 0.00 0.08 0.08 82 1008.4
20260505201921 5 23 0.0 3.2 0.00 0.08 0.08 82 1008.3
20260505200928 5 0.0 0.0 0.00 0.08 0.08 80 1008.3
20260505195940 6 0.0 0.0 0.00 0.08 0.08 81 1008.4
20260505194929 6 0.0 0.0 0.00 0.08 0.08 78 1008.0
20260505193921 6 128 8.0 12.9 0.00 0.08 0.08 77 1008.0
20260505192921 6 0.0 0.0 0.00 0.08 0.08 79 1008.0
20260505191940 5 0.0 0.0 0.00 0.08 0.08 80 1008.0
20260505190949 5 0.0 0.0 0.00 0.08 0.08 81 1008.0
20260505185920 6 0.0 0.0 0.00 0.08 0.08 81 1007.7
20260505184928 6 84 1.6 3.2 0.00 0.08 0.08 82 1008.0
20260505183920 6 0.0 0.0 0.00 0.08 0.08 81 1008.0
20260505182928 6 0.0 0.0 0.00 0.08 0.08 81 1007.9
20260505181920 6 61 6.4 12.9 0.00 0.08 0.08 78 1007.6
20260505180941 6 0.0 0.0 0.00 0.08 0.08 78 1007.9
20260505175920 6 61 3.2 12.9 0.00 0.08 0.08 79 1007.6
20260505174928 6 164 3.2 8.0 0.00 0.08 0.08 78 1007.6
20260505173940 6 0.0 0.0 0.00 0.08 0.08 78 1007.7
20260505172928 6 163 6.4 12.9 0.00 0.08 0.08 78 1007.8
20260505171921 6 107 9.7 16.1 0.00 0.08 0.08 77 1007.6
20260505170928 6 101 9.7 16.1 0.00 0.08 0.08 79 1007.6
20260505165920 6 110 16.1 20.9 0.00 0.08 0.08 78 1008.0
20260505164921 6 111 6.4 12.9 0.00 0.08 0.08 78 1007.7
20260505163920 6 101 8.0 12.9 0.00 0.08 0.08 77 1007.8
20260505163009 6 96 6.4 12.9 0.00 0.08 0.08 77 1007.6
20260505161940 6 97 1.6 8.0 0.00 0.08 0.08 78 1007.7
20260505160928 7 101 11.3 20.9 0.00 0.08 0.08 78 1008.0
20260505152920 7 133 16.1 20.9 0.00 0.08 0.08 76 1007.6
20260505151920 7 145 9.7 12.9 0.00 0.08 0.08 76 1007.6
20260505150928 7 100 6.4 12.9 0.00 0.08 0.08 74 1007.6
20260505124920 7 255 8.0 12.9 0.00 0.08 0.08 74 1008.4
20260505123940 7 0.0 0.0 0.00 0.08 0.08 71 1008.4
20260505122928 7 100 4.8 12.9 0.00 0.08 0.08 72 1008.4
20260505121920 7 165 8.0 12.9 0.00 0.08 0.08 72 1008.4
20260505120928 8 237 1.6 12.9 0.00 0.08 0.08 73 1008.6
20260505115920 8 219 14.5 20.9 0.00 0.08 0.08 72 1008.8
20260505114928 8 228 9.7 20.9 0.00 0.08 0.08 72 1008.8
20260505113920 7 245 9.7 16.1 0.00 0.08 0.08 75 1008.6
20260505112920 7 235 14.5 24.1 0.00 0.08 0.08 75 1008.8
20260505111920 7 286 4.8 12.9 0.00 0.08 0.08 76 1008.8
20260505110928 7 168 9.7 16.1 0.00 0.08 0.08 76 1008.8
20260505101920 6 110 9.7 16.1 0.00 0.08 0.08 89 1009.0
20260505100920 5 0.0 0.0 0.00 0.08 0.08 91 1009.2
20260505095920 5 0.0 0.0 0.00 0.08 0.08 94 1009.2
20260505094928 5 0.0 0.0 0.00 0.08 0.08 90 1008.8
20260505093328 5 0.0 0.0 0.00 0.08 0.08 97 1008.8
20260505092320 5 0.0 0.0 0.00 0.08 0.08 96 1008.8
20260505091348 5 0.0 0.0 0.00 0.08 0.08 94 1008.8
20260505090340 5 0.0 0.0 0.00 0.08 0.08 98 1008.4
20260505085328 5 0.0 0.0 0.00 0.08 0.08 98 1008.8
20260505084320 5 0.0 0.0 0.00 0.08 0.08 99 1008.8
20260505083320 5 0.0 0.0 0.00 0.08 0.08 99 1008.8
20260505082320 5 0.0 0.0 0.00 0.08 0.08 99 1008.6
20260505081328 5 0.0 0.0 0.00 0.08 0.08 99 1008.8
20260505080320 5 0.0 0.0 0.00 0.08 0.08 99 1009.2
20260505075328 5 0.0 0.0 0.00 0.08 0.08 99 1008.8
20260505074320 4 0.0 0.0 0.03 0.08 0.08 99 1008.8
20260505073328 4 0.0 0.0 0.03 0.08 0.08 98 1008.8
20260505072320 4 0.0 0.0 0.03 0.08 0.08 99 1009.1
20260505071340 4 0.0 0.0 0.03 0.08 0.08 99 1008.8